EA3KZ-1 Weather Reports


Display with metric or nautical units.
time (UTC)temp
F
wind
direction
speed
MPH
gust
MPH
rain 1hr
in
rain 24hr
in
rain mn
in
humidity
%
barometer
mb
20260904083611 84 112 1.0 2.0 0.00 0.00 0.00 60 1017.1
20260904082608 85 107 0.0 2.0 0.00 0.00 0.00 60 1017.0
20260904081606 84 0.0 2.0 0.00 0.00 0.00 60 1017.1
20260904080603 84 113 0.0 2.0 0.00 0.00 0.00 60 1017.0
20260904075601 83 0.0 0.0 0.00 0.00 0.00 62 1016.9
20260904074558 82 0.0 2.0 0.00 0.00 0.00 64 1016.9
20260904073555 81 113 0.0 2.0 0.00 0.00 0.00 66 1016.8
20260904072553 79 107 0.0 4.0 0.00 0.00 0.00 68 1016.8
20260904071550 78 109 1.0 2.0 0.00 0.00 0.00 69 1016.9
20260904070548 78 144 1.0 2.0 0.00 0.00 0.00 70 1016.8
20260904065545 78 0.0 2.0 0.00 0.00 0.00 69 1016.9
20260904064542 79 0.0 0.0 0.00 0.00 0.00 67 1016.8
20260904063540 78 50 1.0 2.0 0.00 0.00 0.00 69 1016.7
20260904062537 77 113 0.0 2.0 0.00 0.00 0.00 70 1016.7
20260904061534 76 0.0 0.0 0.00 0.00 0.00 73 1016.6
20260904060532 76 0.0 0.0 0.00 0.00 0.00 73 1016.5
20260904055529 74 286 1.0 2.0 0.00 0.00 0.00 75 1016.4
20260904054527 73 0.0 0.0 0.00 0.00 0.00 78 1016.5
20260904053524 73 0.0 0.0 0.00 0.00 0.00 79 1016.5
20260904052522 73 0.0 0.0 0.00 0.00 0.00 78 1016.4
20260904051519 73 0.0 0.0 0.00 0.00 0.00 78 1016.5
20260904050517 73 0.0 2.0 0.00 0.00 0.00 79 1016.4
20260904045614 73 293 1.0 2.0 0.00 0.00 0.00 79 1016.5
20260904044611 73 270 0.0 2.0 0.00 0.00 0.00 80 1016.7
20260904043609 73 225 0.0 2.0 0.00 0.00 0.00 80 1016.6
20260904042606 72 0.0 2.0 0.00 0.00 0.00 80 1016.7
20260904041604 72 304 0.0 2.0 0.00 0.00 0.00 81 1016.7
20260904040601 72 289 1.0 2.0 0.00 0.00 0.00 81 1016.7
20260904035558 72 232 0.0 2.0 0.00 0.00 0.00 81 1017.0
20260904034556 72 228 1.0 2.0 0.00 0.00 0.00 82 1017.0
20260904033553 72 225 1.0 2.0 0.00 0.00 0.00 82 1016.9
20260904032551 72 203 0.0 2.0 0.00 0.00 0.00 83 1017.0
20260904031548 72 68 0.0 2.0 0.00 0.00 0.00 83 1017.1
20260904030545 72 45 0.0 2.0 0.00 0.00 0.00 83 1017.2
20260904025543 72 236 0.0 2.0 0.00 0.00 0.00 83 1017.2
20260904024540 72 237 2.0 4.0 0.00 0.00 0.00 84 1017.3
20260904023538 72 203 1.0 2.0 0.00 0.00 0.00 85 1017.5
20260904022535 72 180 0.0 2.0 0.00 0.00 0.00 84 1017.5
20260904021533 72 233 1.0 2.0 0.00 0.00 0.00 85 1017.5
20260904020530 71 203 1.0 4.0 0.00 0.00 0.00 86 1017.6
20260904015527 72 204 2.0 4.0 0.00 0.00 0.00 86 1017.6
20260904014525 72 225 0.0 2.0 0.00 0.00 0.00 86 1017.8
20260904013522 72 199 2.0 4.0 0.00 0.00 0.00 86 1018.0
20260904012520 71 158 2.0 2.0 0.00 0.00 0.00 86 1017.9
20260904011517 72 209 1.0 2.0 0.00 0.00 0.00 86 1017.9
20260904010615 72 139 1.0 2.0 0.00 0.00 0.00 87 1018.1
20260904005612 72 158 0.0 2.0 0.00 0.00 0.00 87 1018.2
20260904004610 72 0.0 2.0 0.00 0.00 0.00 88 1018.3
20260904003607 73 152 1.0 2.0 0.00 0.00 0.00 89 1018.4
20260904002604 73 172 1.0 2.0 0.00 0.00 0.00 89 1018.5
20260904001602 73 234 1.0 4.0 0.00 0.00 0.00 90 1018.6
20260904000559 73 225 1.0 2.0 0.00 0.00 0.00 90 1018.6
20260903235557 73 177 1.0 4.0 0.00 0.00 0.00 90 1018.8
20260903234554 73 221 2.0 4.0 0.00 0.00 0.00 90 1018.8
20260903233551 73 188 1.0 4.0 0.00 0.00 0.00 90 1018.8
20260903232549 73 164 2.0 4.0 0.00 0.00 0.00 91 1018.8
20260903231546 74 164 2.0 4.0 0.00 0.00 0.00 90 1018.9
20260903230543 74 191 3.0 6.0 0.00 0.00 0.00 90 1018.9
20260903225541 74 193 3.0 6.0 0.00 0.00 0.00 89 1019.0
20260903224539 74 213 2.0 4.0 0.00 0.00 0.00 89 1018.9
20260903223536 74 203 3.0 6.0 0.00 0.00 0.00 89 1019.0
20260903222533 74 199 2.0 6.0 0.00 0.00 0.00 89 1018.9
20260903221531 74 207 3.0 7.0 0.00 0.00 0.00 88 1018.9
20260903220528 74 206 3.0 6.0 0.00 0.00 0.00 88 1019.0
20260903215525 74 201 4.0 6.0 0.00 0.00 0.00 88 1019.2
20260903214523 75 159 3.0 6.0 0.00 0.00 0.00 87 1019.0
20260903213520 75 192 6.0 8.0 0.00 0.00 0.00 85 1019.1
20260903212517 75 153 3.0 6.0 0.00 0.00 0.00 83 1019.1
20260903211515 75 162 3.0 6.0 0.00 0.00 0.00 82 1019.0
20260903210613 75 181 5.0 9.0 0.00 0.00 0.00 82 1019.0
20260903205610 76 189 4.0 6.0 0.00 0.00 0.00 80 1019.2
20260903204608 76 206 3.0 6.0 0.00 0.00 0.00 80 1019.2
20260903203605 76 202 4.0 6.0 0.00 0.00 0.00 79 1019.3
20260903202602 76 170 2.0 4.0 0.00 0.00 0.00 79 1019.3
20260903201600 77 177 1.0 4.0 0.00 0.00 0.00 79 1019.3
20260903200557 77 183 2.0 4.0 0.00 0.00 0.00 79 1019.2
20260903195554 77 176 2.0 4.0 0.00 0.00 0.00 77 1019.1
20260903194552 77 172 3.0 4.0 0.00 0.00 0.00 77 1019.0
20260903193549 77 173 3.0 6.0 0.00 0.00 0.00 77 1019.0
20260903192547 78 180 4.0 7.0 0.00 0.00 0.00 75 1018.8
20260903191544 78 171 3.0 6.0 0.00 0.00 0.00 74 1018.8
20260903190541 78 177 2.0 4.0 0.00 0.00 0.00 74 1018.6
20260903185539 78 149 3.0 6.0 0.00 0.00 0.00 73 1018.4
20260903184536 79 118 2.0 4.0 0.00 0.00 0.00 73 1018.4
20260903183534 79 135 2.0 7.0 0.00 0.00 0.00 72 1018.3
20260903182531 80 101 2.0 7.0 0.00 0.00 0.00 72 1018.3
20260903181528 80 126 3.0 7.0 0.00 0.00 0.00 72 1018.2
20260903180526 80 138 5.0 8.0 0.00 0.00 0.00 71 1018.2
20260903175523 81 156 3.0 8.0 0.00 0.00 0.00 70 1018.0
20260903174521 81 118 4.0 8.0 0.00 0.00 0.00 70 1018.1
20260903173518 81 119 6.0 11.0 0.00 0.00 0.00 69 1018.0
20260903172515 82 124 5.0 11.0 0.00 0.00 0.00 68 1017.9
20260903171613 82 218 4.0 13.0 0.00 0.00 0.00 67 1017.9
20260903170610 83 127 5.0 13.0 0.00 0.00 0.00 67 1017.8
20260903165608 83 178 7.0 14.0 0.00 0.00 0.00 66 1017.8
20260903164605 83 160 7.0 13.0 0.00 0.00 0.00 65 1017.9
20260903163603 84 178 6.0 13.0 0.00 0.00 0.00 64 1017.9
20260903162600 85 162 6.0 13.0 0.00 0.00 0.00 64 1017.8
20260903161558 85 151 8.0 11.0 0.00 0.00 0.00 62 1017.8
20260903160555 87 101 5.0 11.0 0.00 0.00 0.00 59 1017.8
20260903155552 87 142 5.0 11.0 0.00 0.00 0.00 58 1017.8
20260903154550 87 123 6.0 13.0 0.00 0.00 0.00 56 1017.9
20260903153547 88 124 4.0 9.0 0.00 0.00 0.00 53 1017.8
20260903152544 89 120 4.0 11.0 0.00 0.00 0.00 52 1017.9
20260903151542 90 138 6.0 13.0 0.00 0.00 0.00 49 1017.8
20260903150539 90 129 5.0 11.0 0.00 0.00 0.00 49 1017.8
20260903145537 90 205 3.0 8.0 0.00 0.00 0.00 50 1017.9
20260903144534 90 99 3.0 8.0 0.00 0.00 0.00 49 1017.9
20260903143531 89 146 4.0 11.0 0.00 0.00 0.00 49 1017.9
20260903142529 90 84 4.0 8.0 0.00 0.00 0.00 49 1017.8
20260903141526 90 85 3.0 8.0 0.00 0.00 0.00 50 1018.0
20260903140524 89 188 4.0 11.0 0.00 0.00 0.00 51 1018.0
20260903135521 89 115 5.0 11.0 0.00 0.00 0.00 51 1018.1
20260903134519 90 94 4.0 8.0 0.00 0.00 0.00 50 1018.0
20260903133516 90 112 3.0 9.0 0.00 0.00 0.00 50 1018.3
20260903132613 90 186 3.0 11.0 0.00 0.00 0.00 49 1018.3
20260903131611 89 96 3.0 11.0 0.00 0.00 0.00 49 1018.3
20260903130609 90 128 3.0 8.0 0.00 0.00 0.00 49 1018.3
20260903125605 90 82 2.0 7.0 0.00 0.00 0.00 47 1018.5
20260903124602 91 102 2.0 6.0 0.00 0.00 0.00 45 1018.4
20260903123600 89 75 4.0 8.0 0.00 0.00 0.00 46 1018.4
20260903122557 89 43 4.0 9.0 0.00 0.00 0.00 44 1018.5
20260903121555 90 66 3.0 7.0 0.00 0.00 0.00 44 1018.4
20260903120552 90 90 2.0 6.0 0.00 0.00 0.00 43 1018.4
20260903115550 89 23 4.0 11.0 0.00 0.00 0.00 44 1018.6
20260903114547 90 103 4.0 11.0 0.00 0.00 0.00 43 1018.5
20260903113544 90 240 2.0 4.0 0.00 0.00 0.00 42 1018.7
20260903112542 89 53 2.0 7.0 0.00 0.00 0.00 41 1018.8
20260903111539 88 105 4.0 11.0 0.00 0.00 0.00 42 1019.0
20260903110537 88 105 3.0 8.0 0.00 0.00 0.00 41 1019.0
20260903105534 89 355 3.0 9.0 0.00 0.00 0.00 40 1019.1
20260903104531 88 14 2.0 8.0 0.00 0.00 0.00 41 1019.2
20260903103529 88 107 1.0 4.0 0.00 0.00 0.00 42 1019.3
20260903102526 87 112 2.0 4.0 0.00 0.00 0.00 43 1019.4
20260903101524 87 130 3.0 6.0 0.00 0.00 0.00 43 1019.6
20260903100521 86 110 4.0 7.0 0.00 0.00 0.00 43 1019.5
20260903095518 87 69 2.0 6.0 0.00 0.00 0.00 40 1019.5
20260903094516 86 353 2.0 6.0 0.00 0.00 0.00 42 1019.6
20260903093613 85 116 3.0 6.0 0.00 0.00 0.00 44 1019.7
20260903092611 86 97 2.0 6.0 0.00 0.00 0.00 44 1019.7
20260903091608 85 113 1.0 4.0 0.00 0.00 0.00 46 1019.6
20260903090606 85 14 1.0 4.0 0.00 0.00 0.00 47 1019.5
20260903085603 84 110 2.0 6.0 0.00 0.00 0.00 47 1019.4
20260903084601 83 96 2.0 4.0 0.00 0.00 0.00 51 1019.4